sat.trackr.live / text

‹ back to catalog

YUNHAI-2 01A

NORAD 43909 · 2018-112A

PAYLOAD ACTIVE UNKNOWN

§ Identity

Operator
Country
PRC
Launch date
2018-12-29
Launch site
JSC
Launch vehicle
Mass (kg)
RCS (m²)

External: N2YO · Heavens-Above · Gunter

§ Orbital elements

Epoch: 2026-05-25T05:39:47.568672Z

Period
100.77 min
Inclination
50.0076°
Eccentricity
0.0000272
Mean motion
14.29009335 rev/d
Perigee alt
794.8 km
Apogee alt
795.2 km
Semi-major
7,173.2 km
B*
5.6623e-5
RAAN
141.6330°
Arg perigee
250.6172°
Mean anomaly
109.4714°
Rev number
38,780

§ Raw data

YUNHAI-2 01A1 43909U 18112A   26145.23596723 -.00000017  00000+0  56623-4 0  99972 43909  50.0076 141.6330 0000272 250.6172 109.4714 14.29009335387805

JSON: /api/v1/satellites/43909 · /tle

For live sub-satellite position, see the globe view (requires WebGL).

§ Visibility from observer

Set your observer location to see the next 7 days of passes ≥ 10°. The values pass through the URL so the page stays shareable.

No JS? Fill the form by hand. The geolocation button needs JavaScript.